Regional Weather Roundup
Issued by NWS

Home | Current Version | Previous Version | Graphics & Text | Print | Product List | Glossary Off
Versions: 1 2 3 4 5 6 7 8 9 10 11 12 13 14 15 16 17 18 19 20 21 22 23 24 25 26 27 28 29 30 31 32 33 34 35 36 37 38 39 40 41 42 43 44 45 46 47 48 49 50

000
ASUS43 KMKX 231600
RWRWI

WISCONSIN REGIONAL WEATHER ROUNDUP
NATIONAL WEATHER SERVICE MILWAUKEE/SULLIVAN WI
1100 AM CDT MON APR 23 2018

NOTE: "FAIR" INDICATES FEW OR NO CLOUDS BELOW 12,000 FEET WITH NO
SIGNIFICANT WEATHER AND/OR OBSTRUCTIONS TO VISIBILITY.

WIZ001-002-006>008-014>016-023>028-231700-
NORTHWEST WISCONSIN

CITY           SKY/WX    TMP DP  RH WIND       PRES   REMARKS
SUPERIOR ARPT  FAIR      60  38  45 SW8       30.21F
ASHLAND        FAIR      59  33  37 W8        30.22F
HAYWARD        FAIR      59  34  39 S9        30.24F
SIREN          FAIR      60  28  30 W7        30.24S
CUMBERLAND     FAIR      46  28  49 CALM      30.25S
RICE LAKE      FAIR      55  29  36 S5        30.26F
CHETEK         FAIR      57  30  35 S5        30.25S
LADYSMITH      FAIR      56  32  39 SW5       30.27S
EAU CLAIRE     NOT AVBL
MENOMONIE      FAIR      58  28  31 CALM      30.25F
NEW RICHMOND   FAIR      60  30  32 SW3       30.24S
OSCEOLA        FAIR      59  33  36 SW5       30.27F
$$

WIZ003>005-009-010-017-018-231700-
NORTH CENTRAL WISCONSIN

CITY           SKY/WX    TMP DP  RH WIND       PRES   REMARKS
MANITOWISH WTR FAIR      50  27  41 S9        30.24F
ARBOR VITAE    FAIR      53  26  35 SW7       30.25S
WOODRUFF       FAIR      53  26  35 SW7       30.25S
RHINELANDER    FAIR      55  24  30 SW5       30.25F
EAGLE RIVER    FAIR      51  21  31 SW7       30.25S
LAND O LAKES   FAIR      55  23  29 CALM      30.26S
PHILLIPS       FAIR      55  27  34 SW6       30.24F
TOMAHAWK       FAIR      53  22  29 CALM      30.26F
MEDFORD        FAIR      51  29  42 S7        30.26F
MERRILL          N/A     56  28  33 CALM      30.27F
$$

WIZ029-030-035-036-043>047-231700-
CENTRAL WISCONSIN

CITY           SKY/WX    TMP DP  RH WIND       PRES   REMARKS
WAUSAU         FAIR      56  22  26 SW3       30.24F
MOSINEE        MOSUNNY   55  21  26 VRB3      30.27F
MARSHFIELD     FAIR      55  26  32 SE5       30.25F
STEVENS POINT  FAIR      54  24  31 SE5       30.27F
WAUPACA        FAIR      55  24  30 CALM      30.27F
WAUTOMA        FAIR      57  22  25 VRB5      30.26F
WISC RAPIDS    FAIR      59  23  25 N3        30.26F
CAMP DOUGLAS   SUNNY     57  28  33 SE6       30.25F
$$

WIZ011>013-019>022-031-037>040-048>050-231700-
NORTHEAST WISCONSIN

CITY           SKY/WX    TMP DP  RH WIND       PRES   REMARKS
ANTIGO         FAIR      53  25  34 S3        30.27F
SHAWANO        FAIR      51  26  37 CALM      30.27F
OCONTO         FAIR      53  28  37 CALM      30.28F
STURGEON BAY   FAIR      55  32  41 VRB3      30.28F
GREEN BAY      FAIR      56  32  40 CALM      30.27F
MANITOWOC      FAIR      55  33  43 VRB3      30.27F
APPLETON       MOSUNNY   55  19  24 CALM      30.25F
CLINTONVILLE   FAIR      52  22  31 CALM      30.28S
OSHKOSH        FAIR      55  30  38 CALM      30.26F
$$

WIZ032>034-041-042-053>061-231700-
SOUTHWEST WISCONSIN

CITY           SKY/WX    TMP DP  RH WIND       PRES   REMARKS
LA CROSSE      FAIR      58  31  35 CALM      30.24F
SPARTA         FAIR      59  26  28 CALM      30.25F
VIROQUA        FAIR      56  28  34 CALM      30.24F
BOSCOBEL       FAIR      61  30  31 NE7       30.24F
PRAIRIE DU CHI FAIR      58  30  35 CALM      30.23F
PLATTEVILLE    FAIR      60  26  27 NE12G18   30.22S
$$

WIZ056-057-062-063-064-067-068-231700-
SOUTH CENTRAL WISCONSIN

CITY           SKY/WX    TMP DP  RH WIND       PRES   REMARKS
REEDSBURG      FAIR      58  29  33 E3        30.24F
BARABOO/DELLS  FAIR      54  26  33 E6        30.25F
LONE ROCK      NOT AVBL
MINERAL POINT  FAIR      61  27  27 NE8G16    30.22F
MADISON        PTSUNNY   59  26  28 NE9       30.22F
MIDDLETON      FAIR      57  26  30 E5        30.24F
WATERTOWN      FAIR      56  30  36 E7        30.22F
MONROE         FAIR      57  27  30 NE12      30.20F
JANESVILLE     MOSUNNY   63  25  23 NE10      30.19F
$$

WIZ051-052-058>065-066-070>072-231700-
SOUTHEAST WISCONSIN

CITY           SKY/WX    TMP DP  RH WIND       PRES   REMARKS
MILWAUKEE      PTSUNNY   53  32  44 NE8       30.23F
WAUKESHA       SUNNY     54  25  32 E9        30.23F
MILWAUKEE/TIMM SUNNY     55  16  21 E9        30.24F
RACINE         FAIR      50  31  48 NE12      30.23F
BURLINGTON     FAIR      58  26  30 NE13      30.20F
KENOSHA        FAIR      57  29  34 NE10      30.20F
FOND DU LAC    FAIR      53  30  41 N3        30.25F
SHEBOYGAN      FAIR      57  30  35 E8        30.25F
WEST BEND      FAIR      55  21  26 E7        30.24F
JUNEAU         FAIR      55  27  34 E7        30.24F
$$

LSZ147-162-231700-
LAKE SUPERIOR

STATION/POSITION TIME  TEMP    WIND        PRES    WAVE
                       AIR SEA DIR/SP/G            HT/PER
                 (UTC) (F)     (DEG/KT/KT) (MB)    (FT/S)
DEVILS ISLAND    1500   43     230/  8/  9 1023.9S
SAXON HARBOR     1540   60     230/  6/ 10 1022.7F
$$

LMZ867-665-643>646-231700-
LAKE MICHIGAN

STATION/POSITION TIME  TEMP    WIND        PRES    WAVE
                       AIR SEA DIR/SP/G            HT/PER
                 (UTC) (F)     (DEG/KT/KT) (MB)    (FT/S)
NORTHPORT PIER   1540   44                 1025.4F
KEWAUNEE LAKESHO 1524   46      50/  3/  4 1024.6
SHEBOYGAN LAKESH 1500   39      10/ 11/ 11 1025.3F
PORT WASHINGTON  1540   49      40/  8/  9 1025.1F
MILWAUKEE LAKESH 1530   46      30/ 12/ 13   N/A
KENOSHA   LAKESH 1500   42                 1023.4
$$

TC  - TEMPERATURE IN CELSIUS
VSB - VISIBILITY IN STATUTE MILES
WCI - WIND CHILL INDEX
HX  - HEAT INDEX





USA.gov is the U.S. government's official web portal to all federal, state and local government web resources and services.